Location: Adobe Meadow
(37.4247°N, 122.1100°W)
Time: 05:25:11
(UTC+00:00)

Daily predictions for brighter satellites

Satellite Brightness Start Highest point End
(mag) Time Altitude Azimuth Time Altitude Azimuth Time Altitude Azimuth
CZ-4 R/B 2.2 03:55:30 10° S 03:59:22 53° W 04:03:19 10° NNW
CZ-4B R/B 3.2 03:54:18 10° SSE 03:59:35 84° ENE 04:04:56 10° NNW
Cosmos 1954 Rocket 4.1 03:59:55 10° S 04:05:07 62° ESE 04:10:19 10° NNE
SPOT 5 4.1 04:02:07 10° ESE 04:05:18 21° ENE 04:08:32 10° NNE
Cosmos 1092 Rocket 4.2 03:59:19 10° S 04:05:39 86° W 04:12:02 10° N
SL-24 R/B 4.5 04:04:56 10° SSE 04:09:42 54° ENE 04:13:53 10° N
Cosmos 1066 Rocket 4.4 04:04:38 10° S 04:10:29 83° W 04:16:17 10° N
Cosmos 1707 3.0 04:08:51 10° SSE 04:12:14 41° E 04:15:40 10° NNE
ASTRO E2 4.0 04:10:37 10° SSW 04:13:01 18° SSE 04:15:15 11° ESE
Cosmos 2360 Rocket 4.3 04:11:45 10° NNE 04:13:44 12° NE 04:15:41 10° ENE
Resurs 01 Rocket 1.8 04:10:43 10° S 04:15:06 78° WSW 04:19:32 10° NNW
BREEZE-M DEB (TANK) 3.4 04:12:49 10° WSW 04:15:07 41° NNW 04:17:31 10° NE
Cosmos 676 Rocket 4.0 04:11:42 10° S 04:16:57 64° ESE 04:22:12 10° NNE
PSLV R/B 3.5 04:15:41 10° SSE 04:19:13 80° ENE 04:22:44 10° N
Cosmos 1190 Rocket 4.4 04:14:51 10° SSW 04:20:07 70° WNW 04:25:25 10° NNE
Cosmos 2082 Rocket 3.7 04:20:12 10° SW 04:25:35 42° WNW 04:30:59 10° N
SL-16 R/B 3.3 04:21:51 10° N 04:26:46 29° ENE 04:31:06 12° ESE
Cosmos 1674 2.9 04:23:59 10° SSW 04:27:24 62° W 04:30:50 10° N
SL-27 R/B 4.2 04:31:11 10° E 04:31:11 10° E 04:31:18 10° E
Cosmos 2333 Rocket 4.2 04:27:38 10° NNE 04:30:54 15° NE 04:34:09 10° E
Cosmos 2369 3.9 04:26:11 10° NNW 04:31:55 77° WSW 04:37:36 10° SSE
CZ-4C R/B 3.5 04:28:12 10° NNE 04:32:17 57° E 04:36:18 10° S
ERS-1 Rocket 4.1 04:29:37 13° ESE 04:33:13 29° ENE 04:37:29 10° N
Terra 3.1 04:35:24 14° ESE 04:38:21 25° ENE 04:42:11 10° NNE
Cosmos 1763 Rocket 3.6 04:34:49 10° NNW 04:40:03 77° WSW 04:44:58 11° S
Atlas Centaur 2 3.3 04:32:44 10° WSW 04:40:21 52° S 04:47:22 14° ESE
MetOp-B 4.4 04:36:45 14° SSE 04:41:16 56° ENE 04:46:30 10° N
Cosmos 1766 4.5 04:39:21 10° NNW 04:42:51 38° W 04:46:20 10° SSW
Cosmos 1400 Rocket 2.8 04:50:12 16° S 04:53:06 54° E 04:56:53 10° NNE
Cosmos 1441 Rocket 3.0 04:49:53 10° N 04:53:30 70° E 04:55:39 23° SSE
USA 234 3.2 04:48:41 10° NE 04:55:15 89° SE 05:01:47 10° SW
Cosmos 1908 2.9 04:54:19 10° N 04:57:56 87° E 05:00:07 22° S
ATLAS CENTAUR R/B 0.7 04:54:47 10° SSW 04:58:13 76° ESE 05:01:45 10° NNE
ARGOS Delta rocket 3.6 04:55:11 18° SSE 04:58:28 79° ENE 05:02:51 10° N
Cosmos 1356 Rocket 4.2 04:58:19 25° SE 04:59:55 34° E 05:03:44 10° NNE
IRS-1A Rocket 4.2 04:57:25 19° SSE 05:01:22 69° ENE 05:06:51 10° N
Okean-O 3.1 04:57:59 13° S 05:01:50 59° W 05:06:12 10° NNW
Cosmos 1417 Rocket 4.4 04:57:25 10° N 05:03:36 73° E 05:08:06 19° SSE
Cosmos 1980 Rocket 3.9 05:01:49 10° NW 05:06:31 27° WSW 05:11:12 10° SSW
Cosmos 2322 Rocket 2.9 05:03:43 10° N 05:09:03 40° ENE 05:11:59 23° ESE
USA 245 3.3 05:09:32 35° SE 05:10:44 57° ENE 05:14:48 10° N
Meteor 2-10 Rocket 4.0 05:05:26 10° N 05:10:46 48° ENE 05:13:19 27° SE
Ariane Rocket 3.4 05:09:34 26° SE 05:12:05 47° ENE 05:16:57 10° N
Meteor 1-22 Rocket 4.3 05:06:56 10° N 05:12:39 70° E 05:16:16 24° SSE
Cosmos 468 Rocket 4.4 05:07:55 10° NNW 05:13:01 58° WSW 05:16:39 19° S
SL-08 ROCKET BODY 4.4 05:09:07 11° S 05:15:04 86° E 05:21:09 10° N
Cosmos 1470 4.1 05:12:29 10° NNW 05:15:49 33° W 05:18:46 12° SSW
Cosmos 2228 Rocket 3.2 05:16:47 29° SSE 05:18:57 61° E 05:23:28 10° NNE
Landsat 4 4.0 05:19:36 37° E 05:20:07 40° ENE 05:23:21 10° N
BlueWalker 3 3.8 05:22:32 17° ENE 05:22:32 17° ENE 05:23:36 10° ENE
Okean O Rocket 4.0 05:17:25 10° SW 05:20:29 19° W 05:23:35 10° NW
Cosmos 1869 Rocket 3.7 05:16:52 10° N 05:21:19 74° W 05:23:48 26° S
Cosmos 2278 3.8 05:16:35 10° NNW 05:22:17 74° WSW 05:25:33 26° S
Cosmos 1850 Rocket 4.1 05:21:35 10° SSW 05:26:49 78° WNW 05:32:03 10° NNE
MOS 1 Rocket 3.6 05:26:16 31° SSE 05:28:50 71° ENE 05:34:08 10° N
Tiangong -0.9 05:26:45 10° W 05:29:15 30° SW 05:29:15 30° SW
Cosmos 1241 Rocket 4.4 05:24:53 12° SSW 05:30:35 61° ESE 05:36:42 10° NE
Meteor 1-21 4.2 05:28:09 27° S 05:31:24 67° E 05:37:11 10° NNE
Cosmos 2219 Rocket 3.6 05:28:23 10° N 05:33:03 25° ENE 05:35:22 20° E
SL-14 R/B 3.3 05:35:08 36° SSW 05:36:33 72° W 05:40:20 10° N
Spot 1 4.4 05:33:21 10° NNE 05:37:57 58° ESE 05:39:19 42° SSE
ATLAS 2AS CENTAUR R/B 3.2 05:31:25 10° NNW 05:37:57 48° NE 05:41:14 27° ESE
Cosmos 968 Rocket 3.4 05:35:06 20° SSW 05:38:45 89° WNW 05:43:57 10° NNE
SeaSat 1 2.4 05:37:33 39° SSE 05:39:24 89° WSW 05:44:21 10° NNW
S3M 4.3 05:34:52 10° NNW 05:41:10 67° W 05:45:09 23° S
SPOT 5 4.1 05:40:30 16° SSW 05:43:08 30° W 05:46:58 10° NW
SPOT 3 Rocket 3.4 05:41:18 39° SSE 05:43:17 86° ENE 05:48:28 10° NNW
Cosmos 1455 4.2 05:42:11 10° NE 05:43:39 15° ENE 05:43:39 15° ENE
Landsat 5 3.4 05:40:39 10° NNE 05:44:42 63° ESE 05:45:11 57° SE
Cosmos 1346 Rocket 2.5 05:41:58 10° N 05:45:49 72° E 05:46:06 67° ESE
Okean 3 3.3 05:46:51 61° SSE 05:47:25 73° E 05:51:35 10° N
Cosmos 1862 Rocket 3.5 05:47:52 44° SSW 05:49:13 84° W 05:53:39 10° N
Cosmos 1655 Rocket 4.4 05:47:41 17° SSW 05:52:45 65° W 05:59:06 10° N
Cosmos 1814 Rocket 4.4 05:51:43 10° N 05:56:55 52° ENE 05:58:07 43° ESE
Cosmos 2360 Rocket 2.1 05:52:56 10° NNW 05:58:38 80° ENE 06:00:15 48° SSE
RESURS DK-1 2.7 05:56:17 10° NW 06:00:15 51° WSW 06:00:39 49° SW
SL-27 R/B 4.4 06:02:32 17° W 06:03:15 18° WNW 06:05:19 10° NNW
SJ 16-02 1.7 06:03:48 38° SW 06:05:14 61° WNW 06:09:31 10° N
Cosmos 1244 Rocket 4.4 06:05:47 43° S 06:07:58 77° E 06:14:16 10° N
Cosmos 1758 4.2 06:04:44 10° NNW 06:08:25 40° W 06:09:00 38° WSW
COSMOS 2455 3.7 06:10:52 32° E 06:10:52 32° E 06:15:35 10° NE
Nadezhda 2 Rocket 4.5 06:08:21 43° S 06:10:34 77° E 06:17:00 10° N
SL-16 R/B 3.3 06:05:44 10° NW 06:10:52 36° WSW 06:12:58 27° SW
ERS-1 Rocket 4.4 06:09:33 21° SW 06:11:51 29° W 06:16:13 10° NW
Iridium 51 4.4 06:13:10 73° SSW 06:13:32 81° W 06:17:52 10° N
Terra 3.3 06:14:06 23° SW 06:15:46 29° W 06:19:53 10° NW
Cosmos 2333 Rocket 2.2 06:10:05 10° NNW 06:15:51 81° WSW 06:17:10 55° S
CZ-2C R/B 4.1 06:16:30 10° NNE 06:20:09 47° ENE 06:20:09 47° ENE
Cosmos 1300 4.2 06:18:18 10° NNW 06:21:18 26° W 06:21:24 26° W
Meteor 1-4 Rocket 4.2 06:24:56 26° NW 06:24:56 26° NW 06:26:49 10° NNW
Cosmos 839 Rocket 4.0 06:19:43 10° NNW 06:26:20 71° ENE 06:27:50 52° ESE
Atlas Centaur 2 3.6 06:21:53 10° W 06:29:16 36° SSW 06:29:34 36° SSW
ARIANE 5 R/B 3.4 06:30:35 40° ENE 06:30:35 40° ENE 06:34:16 10° N
Okean 1-7 3.5 06:32:51 53° W 06:33:05 54° W 06:37:19 10° N
Cosmos 2237 Rocket 4.3 06:30:39 10° NNE 06:33:48 15° NE 06:36:08 12° ENE
Cosmos 1733 Rocket 4.4 06:30:34 10° NNW 06:34:26 30° W 06:35:07 29° WSW
SL-08 R/B 4.4 06:33:04 52° SSW 06:34:39 82° W 06:40:47 10° N
DNEPR-1 R/B 4.1 06:28:45 10° NNW 06:35:03 72° ENE 06:35:43 64° ESE
Cosmos 2227 Rocket 4.4 06:37:23 12° ENE 06:37:23 12° ENE 06:38:19 10° ENE
Cosmos 2322 4.1 06:32:53 10° N 06:38:23 49° ENE 06:39:08 46° E
Okean 2 4.3 06:41:57 40° WNW 06:41:57 40° WNW 06:45:39 10° N
CZ-4C R/B 2.8 06:43:38 34° ENE 06:43:38 34° ENE 06:46:49 10° NE
Cosmos 2333 4.4 06:38:36 10° NNW 06:44:17 60° WSW 06:44:58 56° SW
Cosmos 1315 Rocket 4.3 06:48:58 30° W 06:49:05 30° WNW 06:52:39 10° NNW
Cosmos 1486 Rocket 4.3 06:50:06 55° ENE 06:50:06 55° ENE 06:54:34 10° NNE
Cosmos 1908 Rocket 3.9 06:45:13 10° NNW 06:48:57 61° NW 06:48:57 61° NW
GP-B 3.3 06:46:35 10° N 06:50:24 66° N 06:50:24 66° N
Cosmos 1953 3.4 06:48:47 10° NNW 06:51:31 39° NW 06:51:31 39° NW
Cosmos 1782 Rocket 4.2 06:48:14 10° N 06:51:36 47° NNE 06:51:36 47° NNE
Cosmos 2322 Rocket 3.6 06:48:12 10° NW 06:52:48 26° WSW 06:53:48 24° WSW
Cosmos 2297 Rocket 2.9 06:56:04 40° E 06:56:04 40° E 07:00:26 10° NE
BlueWalker 3 3.9 06:56:37 19° WNW 06:58:21 27° NNW 07:01:36 10° NNE
Cosmos 1300 Rocket 4.3 07:04:48 10° N 07:08:01 49° N 07:08:01 49° N
Cosmos 304 Rocket 4.4 07:15:01 49° NE 07:15:01 49° NE 07:18:35 10° NNE
Cosmos 2219 Rocket 2.8 07:11:47 10° NW 07:17:04 43° WSW 07:17:04 43° WSW
Meteor 2-5 Rocket 3.9 07:18:28 64° E 07:18:28 64° E 07:24:08 10° NNE
Cosmos 1455 4.5 07:15:57 10° NW 07:17:23 18° WNW 07:17:23 18° WNW
Cosmos 1745 Rocket 4.3 07:18:07 52° WSW 07:19:17 60° W 07:25:35 10° N
ALOS 2 3.6 07:21:24 41° NE 07:21:24 41° NE 07:24:41 10° N
COSMOS 2428 2.6 07:15:07 10° NNW 07:20:46 87° NNE 07:20:46 87° NNE
Cosmos 2263 Rocket 4.4 07:28:45 12° E 07:28:45 12° E 07:29:53 10° ENE
Cosmos 1570 Rocket 4.4 07:22:13 10° NNW 07:26:59 55° W 07:26:59 55° W
ATLAS 2AS CENTAUR R/B 3.7 07:22:50 10° NW 07:28:30 30° WSW 07:28:39 30° WSW
USA 281 3.1 07:28:43 64° SW 07:29:18 67° WSW 07:35:52 10° NNW
Cosmos 158 Rocket 4.1 07:24:11 10° NNW 07:28:50 68° NW 07:28:50 68° NW
Nadezhda 1 Rocket 4.3 07:26:57 10° NNW 07:32:59 52° W 07:33:33 51° WSW
H-2A R/B 3.6 07:34:34 43° NW 07:34:34 43° NW 07:37:32 10° NNW
Cosmos 2360 Rocket 4.5 07:39:56 10° WNW 07:41:47 12° W 07:42:00 12° W
Cosmos 2181 Rocket 4.1 07:37:15 10° N 07:43:20 58° E 07:43:33 57° E
Cosmos 2074 Rocket 4.3 07:48:38 51° E 07:48:38 51° E 07:54:36 10° NNE
Cosmos 773 Rocket 4.2 07:47:53 10° NNW 07:52:17 65° N 07:52:17 65° N
COSMOS 2455 4.0 07:53:56 28° W 07:56:05 37° NW 08:01:38 10° NNE
SL-4 R/B 3.6 07:57:01 10° NW 08:00:05 34° N 08:00:05 34° N
SL-12 R/B(2) 4.0 08:07:12 63° S 08:08:35 77° ESE 08:17:46 10° NE
NOSS 0 Rocket 4.2 08:03:47 10° NNW 08:09:30 56° W 08:09:30 56° W
SL-16 R/B 3.8 08:07:09 10° N 08:11:57 27° ENE 08:13:49 23° E
Cosmos 2237 Rocket 2.3 08:12:51 10° NNW 08:17:55 70° NW 08:17:55 70° NW
Cosmos 2227 Rocket 2.3 08:19:10 71° NW 08:19:10 71° NW 08:24:40 10° NNE
CENTAUR R/B 2.2 08:20:13 83° NNW 08:20:13 83° NNW 08:26:40 10° NNE
Cosmos 1295 Rocket 4.3 08:20:20 82° E 08:20:20 82° E 08:26:29 10° N
GEOS 3 Rocket 3.7 08:17:36 10° NNE 08:22:06 68° NNE 08:22:06 68° NNE
Okean 1 Rocket 4.2 08:18:31 10° N 08:21:33 42° NNE 08:21:33 42° NNE
Meteor 2-11 Rocket 4.4 08:28:07 73° E 08:28:10 73° E 08:34:14 10° NNE
Nadezhda 3 Rocket 4.1 08:23:55 10° N 08:30:07 62° E 08:30:36 60° ESE
CZ-4C R/B 4.0 08:28:40 15° WNW 08:30:49 19° NW 08:34:38 10° N
Cosmos 1980 4.2 08:26:14 10° NNW 08:30:53 50° WNW 08:30:53 50° WNW
Cosmos 2184 Rocket 4.0 08:34:00 69° WSW 08:34:19 70° W 08:40:42 10° N
CZ-3 Stage 3 4.5 08:20:26 10° W 08:34:47 30° WSW 08:34:47 30° WSW
Cosmos 2297 Rocket 3.8 08:37:50 23° W 08:39:18 25° WNW 08:43:55 10° N
H-2A R/B 3.4 08:37:02 10° N 08:39:52 33° NNW 08:39:52 33° NNW
Cosmos 1975 Rocket 4.3 08:43:03 36° NE 08:43:03 36° NE 08:46:06 10° NNE
Cosmos 2219 3.1 08:43:27 80° NNW 08:43:27 80° NNW 08:48:51 10° NNE
Meteor 1-21 Rocket 4.2 08:44:03 79° E 08:44:03 79° E 08:49:41 10° NNE
Cosmos 1898 Rocket 4.0 08:45:27 53° ENE 08:45:27 53° ENE 08:49:49 10° NNE
Cosmos 967 Rocket 4.4 08:46:20 75° WSW 08:46:51 82° WNW 08:53:22 10° NNE
Cosmos 292 Rocket 4.2 08:52:02 59° NNE 08:52:02 59° NNE 08:55:56 10° NNE
Cosmos 2154 Rocket 4.0 08:51:07 62° W 08:51:27 63° W 08:57:41 10° N
Cosmos 2327 Rocket 4.3 08:54:18 79° SE 08:54:36 83° E 09:00:43 10° N
Helios 1A Rocket 4.5 08:58:50 29° NE 08:58:50 29° NE 09:01:29 10° N
Cosmos 1455 Rocket 3.8 08:54:33 10° N 08:58:04 51° NNE 08:58:04 51° NNE
BREEZE-M DEB (TANK) 4.2 08:55:51 10° NW 09:00:10 25° N 09:00:45 23° NNE
Resurs 1-4 Rocket 3.9 08:58:44 10° NE 09:02:27 19° E 09:03:13 19° ESE
Cosmos 1461 4.3 09:04:08 33° NE 09:04:08 33° NE 09:06:24 10° NNE
Cosmos 1025 Rocket 4.3 09:06:29 35° NW 09:06:29 35° NW 09:09:29 10° N
SL-8 Rocket 4.1 09:06:26 56° SE 09:07:14 61° E 09:13:19 10° NNE
NOSS 3-2 (A) 3.4 09:09:04 53° WNW 09:09:25 54° NW 09:15:09 10° NNE
Cosmos 2263 Rocket 2.1 09:10:25 71° WNW 09:10:31 71° WNW 09:16:06 10° NNE
NOSS 3-2 (C) 3.1 09:16:18 71° ESE 09:16:18 71° ESE 09:21:52 10° NE
Cosmos 962 Rocket 4.4 09:15:53 70° SSW 09:16:38 83° W 09:23:01 10° N
Cosmos 1818 4.4 09:23:34 10° NNW 09:28:51 47° NE 09:32:05 22° ESE
Cosmos 1844 Rocket 3.8 09:29:05 29° ESE 09:29:57 30° ESE 09:34:44 10° NE
COBE Rocket 3.9 09:32:44 10° NNE 09:37:55 82° ESE 09:38:16 76° SSE
Cosmos 2341 Rocket 4.0 09:41:06 57° SW 09:42:03 65° W 09:48:15 10° N
BREEZE-M DEB (TANK) 3.9 09:45:16 23° ENE 09:45:16 23° ENE 09:47:41 10° ESE
Cosmos 864 Rocket 4.5 09:46:59 57° SW 09:48:17 73° W 09:54:37 10° N
IDEFIX/ARIANE 42P 2.5 09:43:25 10° NNE 09:48:40 73° ESE 09:49:25 62° SSE
Cosmos 1900 4.4 09:49:55 66° W 09:50:21 70° WNW 09:55:28 10° NNE
SL-16 R/B 2.8 09:50:51 10° NW 09:55:38 39° W 09:55:38 39° W
MOZ.5/SAFIR/RUBIN 5/SL-8 3.6 09:56:28 76° WSW 09:56:31 76° WSW 10:01:09 10° NNW
Cosmos 1606 3.9 09:54:57 10° NNW 09:57:09 33° NNW 09:57:09 33° NNW
CZ-2C R/B 3.6 09:53:31 10° NNE 09:58:42 51° E 10:00:02 40° SE
CZ-2C R/B 3.0 09:59:28 32° SE 10:01:49 61° ENE 10:07:06 10° N
Cosmos 2228 2.8 10:02:13 10° N 10:06:33 83° W 10:06:35 83° WSW
CZ-2D R/B 2.1 10:01:32 10° NNE 10:06:52 75° ESE 10:08:12 50° S
MSX 3.7 10:03:48 10° NNE 10:09:33 85° WNW 10:11:12 49° SSW
Cosmos 1943 3.2 10:04:12 10° NNW 10:09:50 77° ENE 10:12:58 27° SSE
Cosmos 1544 Rocket 3.9 10:06:28 10° NNW 10:10:31 51° W 10:10:31 51° W
H-2A R/B 3.3 10:07:28 10° N 10:11:22 71° WNW 10:11:22 71° WNW
Cosmos 1821 Rocket 3.8 10:09:42 47° SSW 10:11:37 84° W 10:17:47 10° N
Cosmos 1867 3.5 10:10:54 55° SW 10:12:07 84° WNW 10:17:38 10° NNE
FENGYUN 3A 4.1 10:08:29 10° NNE 10:13:46 55° E 10:15:51 35° SSE
USA 238 DEB 3.5 10:20:07 41° SW 10:22:22 72° NW 10:28:57 10° NNE
USA 238 3.5 10:20:10 41° SW 10:22:24 73° WNW 10:29:00 10° NNE
ALOS 3.4 10:19:45 10° NNE 10:24:02 37° E 10:26:09 24° SSE
ADEOS II 2.1 10:20:59 10° NNE 10:26:14 75° ESE 10:28:15 38° S
NPP 4.0 10:21:58 10° N 10:27:10 51° WNW 10:28:41 39° WSW
BREEZE-M DEB (TANK) 4.3 10:30:15 23° SE 10:31:02 25° ESE 10:36:20 10° ENE
ATLAS 5 CENTAUR R/B 3.2 10:37:32 13° SE 10:38:19 14° ESE 10:40:10 10° ENE
Cosmos 921 Rocket 3.1 10:36:51 10° NNW 10:41:04 72° ENE 10:43:33 23° SSE
Resurs 1-4 Rocket 2.5 10:37:23 10° N 10:42:26 47° WNW 10:44:17 33° WSW
Iridium 2 3.6 10:45:17 45° ENE 10:45:17 45° ENE 10:47:20 10° NNE
Cosmos 1844 3.8 10:43:33 35° SW 10:46:01 68° WNW 10:51:49 10° NNE
Meteor 1-28 Rocket 3.3 10:44:34 30° SSE 10:46:08 65° ENE 10:49:39 10° N
Cosmos 1606 Rocket 3.5 10:41:50 10° N 10:46:17 88° W 10:48:20 31° S
Cosmos 2058 3.7 10:46:01 22° SSE 10:48:14 45° E 10:52:07 10° NNE
Cosmos 1934 Rocket 4.1 10:44:13 23° S 10:48:24 80° E 10:54:47 10° N
SL-16 R/B 2.7 10:45:17 10° SSE 10:51:31 78° ENE 10:57:46 10° NNW
Cosmos 2123 Rocket 4.2 10:46:15 10° N 10:52:26 72° E 10:58:37 10° SSE
NOSS 2-2 (C) 4.2 10:54:30 25° SSE 10:55:35 31° ESE 10:58:25 10° NE
Cosmos 1726 Rocket 3.5 10:56:52 10° N 11:01:18 81° W 11:04:06 22° S
Cosmos 1238 Rocket 4.1 11:01:20 10° NNE 11:04:12 29° ENE 11:06:51 10° SE
Cosmos 1437 Rocket 4.3 11:04:20 19° W 11:04:45 19° WNW 11:07:34 10° NNW
USA 267 3.3 11:02:55 10° NE 11:09:28 81° NW 11:14:06 21° SW
Delta 2 Rocket 3.4 11:08:38 30° WSW 11:10:12 48° SSW 11:14:19 10° ESE
SAR-Lupe-1 3.9 11:08:26 10° NNE 11:12:01 87° WNW 11:13:50 28° SSW
NOSS 2-3 (E) 4.4 11:10:11 18° S 11:12:17 33° ESE 11:15:39 10° NE
Cosmos 1844 Rocket 3.6 11:10:44 21° WSW 11:13:40 33° WNW 11:18:42 10° N
NOSS 2-3 (C) 4.2 11:15:42 18° S 11:17:55 38° ESE 11:21:23 10° NE
SEDSat Delta rocket 3.4 11:19:21 26° SW 11:20:48 35° S 11:24:30 10° ESE
Cosmos 724 4.4 11:17:02 10° NNW 11:22:51 79° ENE 11:28:44 10° SSE
ASTEX 1 4.0 11:23:12 21° SW 11:25:52 37° W 11:30:22 10° NNW
Cosmos 1544 2.1 11:26:12 32° SSW 11:27:14 70° W 11:29:50 10° N
Orbus 7S? 4.1 11:24:07 10° WNW 11:27:34 47° SW 11:34:33 10° SSE
CZ-2C R/B 2.8 11:28:47 10° NNE 11:33:16 58° E 11:37:48 10° S
Cosmos 1271 Rocket 4.3 11:31:23 10° SSE 11:34:34 31° E 11:37:46 10° NNE
Lacrosse 5 4.0 11:31:52 10° SSE 11:35:14 18° ESE 11:38:37 10° ENE
Envisat 3.0 11:30:58 10° N 11:36:03 81° WNW 11:40:57 11° SSW
Cosmos 2278 Rocket 3.9 11:34:05 10° SSE 11:38:56 30° ESE 11:43:47 10° NE
Cosmos 1048 Rocket 4.4 11:34:09 10° NNW 11:39:02 41° WSW 11:43:58 10° S
UNK 3.9 11:37:30 10° S 11:41:59 52° W 11:46:28 10° NNW
CZ-2C R/B 4.3 11:40:57 13° WSW 11:42:29 15° W 11:45:21 10° WNW
Cosmos 2058 Rocket 3.2 11:38:14 10° NNW 11:42:33 53° W 11:46:47 10° S
Cosmos 1758 Rocket 3.9 11:39:05 10° S 11:43:28 67° E 11:47:51 10° NNE
Cosmos 1125 Rocket 4.5 11:41:49 15° WSW 11:45:34 33° WNW 11:50:20 10° N
CZ-2D R/B 4.1 11:43:44 10° NNW 11:46:09 13° WNW 11:48:33 10° W
YAOGAN 6 2.5 11:43:04 10° NNE 11:46:15 68° E 11:49:23 10° S
USA 276 4.4 11:48:39 10° S 11:50:27 15° SE 11:52:14 10° E
Cosmos 1812 3.7 11:48:25 10° NW 11:51:23 25° W 11:53:51 13° SW
